Theta_e
304 305 304 297 293 298 291 291 290 293 298 306 312 313 319 319 319 325 328 332 336 338 338 339 342 344 346 347 346 339 332 328
302 304 303 302 301 293 291 287 286 291 294 297 305 309 315 316 317 323 327 330 334 337 337 340 343 345 346 348 346 340 332 329
300 298 297 298 295 293 294 291 288 288 293 302 306 311 313 316 319 323 326 329 331 334 336 337 342 344 345 346 345 340 334 331
295 300 302 300 298 297 294 290 290 291 294 306 309 314 316 317 318 319 324 328 331 332 334 334 337 341 344 345 343 340 335 332
291 293 297 297 299 295 294 293 292 292 295 307 308 311 315 316 317 318 320 323 329 331 332 333 336 339 342 345 343 341 336 333
293 293 297 296 300 299 297 292 292 294 298 303 307 309 310 313 316 318 319 321 325 327 330 332 334 338 341 345 345 342 337 335
298 300 299 300 300 300 298 299 298 298 299 304 307 309 311 313 313 315 317 318 322 325 326 329 331 336 340 344 345 342 339 336
295 299 300 299 301 302 302 299 299 298 300 306 310 310 310 312 313 314 315 318 321 324 325 325 330 334 339 342 343 342 340 337
294 297 299 295 300 301 303 305 303 298 302 307 308 310 311 311 314 315 316 322 322 322 326 329 331 335 338 341 343 340 340 337
295 294 291 298 306 307 307 309 309 308 304 309 310 314 312 311 312 313 315 318 323 326 326 331 333 336 337 341 340 338 336 334
291 291 298 304 308 306 303 304 311 310 310 311 312 312 310 313 313 314 314 314 315 320 326 329 334 337 336 336 337 336 334 333
292 291 292 303 311 314 311 300 312 312 311 311 311 307 307 314 314 315 315 319 319 321 323 329 330 336 333 331 333 333 334 332
295 296 299 308 312 314 299 300 312 311 309 310 307 309 310 313 315 317 318 320 322 321 328 331 332 331 329 329 330 331 331 331
298 295 294 311 311 304 307 309 311 311 312 312 313 315 316 318 317 317 317 317 320 322 327 333 331 329 326 325 328 329 327 325
302 299 307 311 308 312 312 310 311 312 313 314 317 315 318 319 320 322 324 326 327 324 325 328 329 328 324 324 325 326 325 322
306 307 310 312 313 314 314 313 314 315 314 315 318 324 320 322 325 326 326 327 328 327 326 323 324 325 323 324 323 323 322 321
306 312 313 312 313 315 316 316 315 314 316 316 315 314 318 323 325 326 326 324 325 322 321 320 321 322 323 324 325 324 323 324
303 312 310 310 314 316 311 311 311 310 309 310 311 310 316 323 326 323 323 322 322 319 318 320 322 322 323 324 324 322 320 321
310 314 312 312 312 313 310 310 310 309 309 308 308 309 309 310 316 321 322 321 321 321 320 320 320 320 320 320 322 320 317 318
Wind_Speed
5 7 12 4 5 10 6 1 4 5 7 9 6 12 17 19 15 19 20 20 22 19 20 19 18 20 20 18 16 14 13 10
5 5 6 12 8 2 2 6 5 4 4 7 7 8 11 14 17 19 18 17 17 19 19 19 20 19 18 17 18 15 14 12
6 8 9 3 3 4 6 4 9 5 8 9 8 9 18 20 22 19 17 18 18 19 19 20 18 17 17 15 16 15 15 12
14 6 3 7 10 10 7 7 1 5 9 5 9 9 14 16 15 10 13 16 17 19 19 17 18 17 18 16 17 16 14 13
9 4 1 5 6 6 3 4 9 8 8 2 4 6 10 11 10 11 13 11 16 15 17 18 18 18 18 17 18 15 14 15
15 9 6 6 6 9 9 6 6 8 6 4 7 9 8 10 11 14 16 17 17 15 17 18 16 17 15 16 17 15 15 16
18 16 7 7 7 7 9 11 11 9 11 10 13 14 15 13 8 11 14 14 15 16 15 15 14 14 14 15 16 17 17 17
12 10 14 11 16 12 16 3 5 7 7 8 10 5 5 12 11 9 8 12 11 12 8 10 14 15 15 16 16 15 18 20
17 6 6 5 9 11 7 5 5 7 12 7 4 8 11 11 13 12 9 9 10 10 9 9 11 13 14 16 12 14 16 14
11 7 7 6 3 12 11 3 2 5 4 10 11 17 5 4 12 10 10 10 8 8 8 10 8 10 9 11 13 14 13 12
7 7 3 4 5 5 4 3 5 3 1 4 5 5 6 2 1 9 9 8 8 8 7 6 8 9 10 11 12 12 14 14
2 8 6 3 7 13 11 3 7 7 5 6 5 8 3 5 2 2 4 5 7 8 4 5 6 7 10 10 11 14 11 8
3 5 2 6 17 7 9 7 7 4 5 10 7 5 3 7 9 4 4 5 7 0 5 5 6 7 7 8 8 6 9 8
3 5 3 14 6 8 3 3 5 3 5 13 9 8 8 7 6 6 6 7 9 7 6 1 6 8 8 8 8 10 11 10
2 6 4 6 3 4 4 5 4 13 7 7 13 9 10 8 8 10 10 7 4 5 6 4 6 10 11 7 12 11 11 9
2 1 4 4 4 5 5 5 4 6 8 12 10 9 8 9 7 7 6 9 7 8 7 5 3 8 13 12 12 14 11 8
2 3 4 5 4 2 7 5 10 9 8 7 8 7 7 9 10 4 2 4 5 10 9 8 8 10 9 8 9 10 10 6
5 6 8 2 3 2 11 6 7 11 11 9 10 10 8 7 3 4 6 1 5 9 11 9 8 12 8 7 4 7 6 6
7 3 7 5 5 8 11 13 10 12 8 8 9 9 7 4 4 2 4 3 2 11 12 10 11 11 7 6 6 6 6 2
Wind_Direction
206 189 155 189 156 196 137 348 98 217 277 328 298 213 203 202 188 200 196 192 194 190 192 194 197 199 194 193 193 185 186 181
235 173 224 192 166 91 352 164 234 251 242 221 223 206 203 189 195 202 196 193 192 193 193 197 201 202 197 197 196 186 183 184
141 194 198 140 181 77 125 143 170 221 258 213 226 192 186 195 201 197 188 190 192 196 198 200 201 197 196 194 190 187 185 177
229 229 191 181 208 179 196 247 200 166 260 232 222 200 187 199 193 190 189 188 193 196 199 198 202 197 197 193 191 191 185 178
324 335 181 179 192 174 131 95 186 153 252 268 200 180 195 177 188 184 195 187 197 196 200 204 203 201 197 194 197 186 179 179
224 219 160 186 190 195 156 150 168 210 202 248 215 181 194 215 183 185 196 195 196 197 204 207 205 201 196 199 196 189 183 181
227 216 191 233 226 197 187 190 177 212 193 211 205 197 202 197 185 176 199 200 200 201 203 202 203 196 197 201 194 189 187 185
228 214 199 222 245 222 225 180 112 128 225 218 210 78 130 190 182 188 181 197 200 207 200 201 202 198 198 199 198 188 192 197
230 173 173 223 221 198 169 151 154 147 219 155 167 192 194 197 190 185 172 173 185 194 197 203 202 195 198 198 187 197 202 163
215 107 200 242 286 159 121 109 53 270 238 183 189 203 180 286 159 163 160 169 192 195 209 215 202 197 179 177 182 190 194 163
144 171 178 355 17 320 133 195 192 188 257 189 119 86 29 84 187 163 172 167 175 184 195 198 196 190 171 173 178 184 187 169
140 136 178 273 344 344 304 29 5 60 47 115 117 152 247 344 40 127 155 154 175 190 184 198 222 165 158 172 171 192 181 163
19 98 153 4 323 289 70 238 4 70 124 97 91 159 247 80 62 68 34 324 345 251 210 225 146 143 150 159 176 129 117 120
38 62 8 358 358 82 235 347 88 43 41 93 98 83 58 34 39 34 22 0 2 333 312 283 117 118 129 132 132 117 118 112
155 187 267 290 96 346 337 75 52 77 50 69 66 54 49 19 16 358 355 343 335 311 312 75 133 137 126 130 125 121 118 122
109 316 276 4 45 30 348 35 51 53 64 64 65 50 52 36 13 355 344 349 351 43 36 31 100 120 122 130 121 114 109 112
90 66 197 51 35 37 353 21 45 48 33 15 52 12 8 4 348 339 335 61 15 66 70 57 73 78 81 79 116 121 122 130
158 205 102 114 356 183 82 35 62 51 38 20 52 39 16 19 290 334 338 211 116 109 107 114 117 111 127 130 148 124 128 156
143 150 94 104 48 38 70 64 32 65 63 22 23 31 16 7 329 255 90 18 318 134 140 155 144 159 176 164 147 144 149 204